• In Germany
  • List of Countries
  • For 7 days
  • Water Temperature
  • Satellite Maps
  • Weather Map
  • Weather Widgets
  • user-avatar
    Login

    Hourly Weather Ganja

    Today, 27 May, Saturday

    Time Temperature Precipitation Wind Pressure Humidity
    00:00 +16°C° 0.4 mm 1 mps 724 mmHg 85%
    01:00 +15°C° 0.1 mm 1 mps 724 mmHg 86%
    02:00 +15°C° 0.1 mm 1 mps 724 mmHg 88%
    03:00 +14°C° 0 mm 0 mps 723 mmHg 89%
    04:00 +14°C° 0 mm 0 mps 723 mmHg 88%
    05:00 +15°C° 0 mm 0 mps 724 mmHg 86%
    06:00 +16°C° 0 mm 0 mps 724 mmHg 85%
    07:00 +20°C° 0.1 mm 1 mps 724 mmHg 76%
    08:00 +21°C° 0.1 mm 1 mps 723 mmHg 68%
    09:00 +23°C° 0.1 mm 1 mps 723 mmHg 59%
    10:00 +24°C° 0.2 mm 1 mps 723 mmHg 54%
    11:00 +25°C° 0.2 mm 1 mps 722 mmHg 50%
    12:00 +27°C° 0.2 mm 1 mps 722 mmHg 45%
    13:00 +27°C° 0.2 mm 1 mps 721 mmHg 45%
    14:00 +27°C° 0.2 mm 2 mps 721 mmHg 44%
    15:00 +28°C° 0.2 mm 2 mps 721 mmHg 44%
    16:00 +27°C° 0.4 mm 2 mps 721 mmHg 48%
    17:00 +26°C° 0.4 mm 1 mps 720 mmHg 52%
    18:00 +25°C° 0.4 mm 1 mps 720 mmHg 56%
    19:00 +23°C° 0.3 mm 1 mps 721 mmHg 61%
    20:00 +21°C° 0.3 mm 1 mps 721 mmHg 67%
    21:00 +19°C° 0.3 mm 1 mps 722 mmHg 72%
    22:00 +18°C° 0.4 mm 1 mps 722 mmHg 74%
    23:00 +18°C° 0.4 mm 1 mps 722 mmHg 76%

    Tomorrow, 28 May, Sunday

    Time Temperature Precipitation Wind Pressure Humidity
    00:00 +18°C° 0.4 mm 1 mps 722 mmHg 77%
    01:00 +16°C° 0.1 mm 1 mps 722 mmHg 78%
    02:00 +16°C° 0.1 mm 1 mps 723 mmHg 78%
    03:00 +16°C° 0.1 mm 1 mps 723 mmHg 78%
    04:00 +16°C° 0 mm 2 mps 723 mmHg 75%
    05:00 +17°C° 0 mm 2 mps 723 mmHg 72%
    06:00 +18°C° 0 mm 2 mps 723 mmHg 69%
    07:00 +20°C° 0 mm 2 mps 723 mmHg 60%
    08:00 +23°C° 0 mm 2 mps 723 mmHg 52%
    09:00 +25°C° 0 mm 2 mps 724 mmHg 44%
    10:00 +26°C° 0 mm 2 mps 723 mmHg 41%
    11:00 +27°C° 0 mm 2 mps 723 mmHg 39%
    12:00 +28°C° 0 mm 2 mps 723 mmHg 36%
    13:00 +28°C° 0 mm 2 mps 723 mmHg 36%
    14:00 +29°C° 0 mm 2 mps 722 mmHg 36%
    15:00 +29°C° 0 mm 2 mps 722 mmHg 36%
    16:00 +28°C° 0.2 mm 2 mps 722 mmHg 40%
    17:00 +27°C° 0.2 mm 2 mps 723 mmHg 45%
    18:00 +27°C° 0.2 mm 2 mps 723 mmHg 49%
    19:00 +24°C° 0.4 mm 1 mps 724 mmHg 54%
    20:00 +22°C° 0.4 mm 1 mps 724 mmHg 59%
    21:00 +19°C° 0.4 mm 1 mps 725 mmHg 63%
    22:00 +19°C° 0.1 mm 1 mps 725 mmHg 66%
    23:00 +18°C° 0.1 mm 1 mps 725 mmHg 69%

    Day after tomorrow, 29 May, Monday

    Time Temperature Precipitation Wind Pressure Humidity
    00:00 +16°C° 0.1 mm 1 mps 726 mmHg 72%
    01:00 +16°C° 0 mm 1 mps 726 mmHg 74%
    02:00 +15°C° 0 mm 1 mps 726 mmHg 75%
    03:00 +15°C° 0 mm 1 mps 726 mmHg 77%
    04:00 +16°C° 0 mm 1 mps 727 mmHg 73%
    05:00 +19°C° 0 mm 1 mps 727 mmHg 69%
    06:00 +20°C° 0 mm 1 mps 727 mmHg 65%
    07:00 +22°C° 0 mm 1 mps 728 mmHg 59%
    08:00 +23°C° 0 mm 1 mps 728 mmHg 53%
    09:00 +25°C° 0 mm 1 mps 728 mmHg 48%
    10:00 +26°C° 0 mm 2 mps 728 mmHg 46%
    11:00 +27°C° 0 mm 3 mps 728 mmHg 44%
    12:00 +28°C° 0 mm 3 mps 728 mmHg 42%
    13:00 +28°C° 0.1 mm 4 mps 727 mmHg 43%
    14:00 +28°C° 0.1 mm 4 mps 727 mmHg 44%
    15:00 +29°C° 0.1 mm 5 mps 727 mmHg 45%
    16:00 +28°C° 0.3 mm 5 mps 727 mmHg 48%
    17:00 +27°C° 0.3 mm 5 mps 727 mmHg 50%
    18:00 +26°C° 0.3 mm 5 mps 727 mmHg 53%
    19:00 +23°C° 0.1 mm 5 mps 728 mmHg 58%
    20:00 +21°C° 0.1 mm 5 mps 728 mmHg 63%
    21:00 +20°C° 0.1 mm 5 mps 729 mmHg 68%
    22:00 +19°C° 0 mm 5 mps 729 mmHg 70%
    23:00 +18°C° 0 mm 4 mps 729 mmHg 73%

    30 May, Tuesday

    Time Temperature Precipitation Wind Pressure Humidity
    00:00 +17°C° 0 mm 4 mps 729 mmHg 76%
    01:00 +17°C° 0 mm 3 mps 728 mmHg 79%
    02:00 +16°C° 0 mm 2 mps 728 mmHg 82%
    03:00 +15°C° 0 mm 1 mps 728 mmHg 85%
    04:00 +16°C° 0 mm 1 mps 728 mmHg 83%
    05:00 +18°C° 0 mm 1 mps 728 mmHg 81%
    06:00 +19°C° 0 mm 1 mps 728 mmHg 80%
    07:00 +20°C° 0 mm 1 mps 728 mmHg 73%
    08:00 +22°C° 0 mm 1 mps 727 mmHg 66%
    09:00 +23°C° 0 mm 1 mps 727 mmHg 59%
    10:00 +25°C° 0 mm 1 mps 727 mmHg 54%
    11:00 +26°C° 0 mm 1 mps 726 mmHg 50%
    12:00 +27°C° 0 mm 1 mps 726 mmHg 45%
    13:00 +28°C° 0 mm 1 mps 725 mmHg 44%
    14:00 +29°C° 0 mm 1 mps 725 mmHg 43%
    15:00 +29°C° 0 mm 1 mps 724 mmHg 41%
    16:00 +29°C° 0 mm 1 mps 724 mmHg 44%
    17:00 +28°C° 0 mm 1 mps 724 mmHg 47%
    18:00 +28°C° 0 mm 1 mps 724 mmHg 49%
    19:00 +25°C° 0 mm 1 mps 725 mmHg 55%
    20:00 +23°C° 0 mm 1 mps 725 mmHg 61%
    21:00 +21°C° 0 mm 1 mps 725 mmHg 66%
    22:00 +20°C° 0 mm 1 mps 725 mmHg 66%
    23:00 +20°C° 0 mm 1 mps 725 mmHg 66%

    31 May, Wednesday

    Time Temperature Precipitation Wind Pressure Humidity
    00:00 +20°C° 0 mm 1 mps 725 mmHg 66%
    01:00 +19°C° 0 mm 1 mps 725 mmHg 67%
    02:00 +19°C° 0 mm 1 mps 725 mmHg 68%
    03:00 +18°C° 0 mm 1 mps 725 mmHg 69%
    04:00 +19°C° 0 mm 1 mps 725 mmHg 66%
    05:00 +20°C° 0 mm 2 mps 725 mmHg 63%
    06:00 +21°C° 0 mm 2 mps 726 mmHg 60%
    07:00 +24°C° 0 mm 2 mps 725 mmHg 53%
    08:00 +26°C° 0 mm 1 mps 725 mmHg 46%
    09:00 +28°C° 0 mm 1 mps 725 mmHg 40%
    10:00 +29°C° 0 mm 2 mps 725 mmHg 38%
    11:00 +30°C° 0 mm 2 mps 724 mmHg 36%
    12:00 +31°C° 0 mm 2 mps 724 mmHg 34%
    13:00 +31°C° 0.1 mm 2 mps 723 mmHg 34%
    14:00 +33°C° 0.1 mm 3 mps 723 mmHg 34%
    15:00 +33°C° 0.1 mm 3 mps 723 mmHg 34%
    16:00 +31°C° 0.3 mm 3 mps 723 mmHg 39%
    17:00 +30°C° 0.3 mm 3 mps 723 mmHg 43%
    18:00 +29°C° 0.3 mm 3 mps 723 mmHg 47%
    19:00 +27°C° 0.1 mm 3 mps 723 mmHg 50%
    20:00 +25°C° 0.1 mm 3 mps 723 mmHg 54%
    21:00 +22°C° 0.1 mm 3 mps 723 mmHg 58%
    22:00 +21°C° 0.2 mm 3 mps 723 mmHg 62%
    23:00 +20°C° 0.2 mm 3 mps 723 mmHg 65%

    1 June, Thursday

    Time Temperature Precipitation Wind Pressure Humidity
    00:00 +19°C° 0.2 mm 3 mps 722 mmHg 69%
    01:00 +18°C° 0.3 mm 2 mps 722 mmHg 72%
    02:00 +18°C° 0.3 mm 1 mps 722 mmHg 75%
    03:00 +16°C° 0.3 mm 1 mps 722 mmHg 79%
    04:00 +18°C° 0.1 mm 1 mps 722 mmHg 76%
    05:00 +19°C° 0.1 mm 1 mps 722 mmHg 73%
    06:00 +21°C° 0.1 mm 1 mps 722 mmHg 70%
    07:00 +22°C° 0.1 mm 1 mps 721 mmHg 64%
    08:00 +24°C° 0.1 mm 1 mps 721 mmHg 58%
    09:00 +25°C° 0.1 mm 1 mps 720 mmHg 52%
    10:00 +26°C° 0.5 mm 1 mps 720 mmHg 50%
    11:00 +27°C° 0.5 mm 1 mps 719 mmHg 48%
    12:00 +28°C° 0.5 mm 2 mps 719 mmHg 45%
    13:00 +28°C° 0.8 mm 1 mps 718 mmHg 45%
    14:00 +29°C° 0.8 mm 1 mps 718 mmHg 44%
    15:00 +29°C° 0.8 mm 1 mps 718 mmHg 43%
    16:00 +28°C° 0.4 mm 1 mps 718 mmHg 47%
    17:00 +28°C° 0.4 mm 1 mps 718 mmHg 50%
    18:00 +27°C° 0.4 mm 1 mps 718 mmHg 53%
    19:00 +25°C° 0.5 mm 1 mps 718 mmHg 56%
    20:00 +24°C° 0.5 mm 1 mps 719 mmHg 58%
    21:00 +22°C° 0.5 mm 1 mps 719 mmHg 61%
    22:00 +20°C° 0.5 mm 2 mps 719 mmHg 63%
    23:00 +20°C° 0.5 mm 3 mps 719 mmHg 65%
    Show more